Location: Dob?e?
(49.9411°N, 15.1496°E)
Time: 08:06:48
(UTC+00:00)

X-37B - Visible Passes

Search period start: 30 July 2021 00:00
Search period end: 09 August 2021 00:00
Orbit: 383 x 392 km, 45.0° (Epoch: 01 July)

Date Brightness Start Highest point End Pass type
(mag) Time Alt. Az. Time Alt. Az. Time Alt. Az.
02 Aug 2.9 02:36:03 10° S 02:37:53 14° SSE 02:39:43 10° ESE visible
04 Aug 2.4 02:15:58 15° SSW 02:17:33 20° SSE 02:19:58 10° ESE visible
05 Aug 2.9 01:20:05 14° SE 01:20:05 14° SE 01:21:14 10° ESE visible
05 Aug 1.7 02:52:35 10° SW 02:55:28 31° S 02:58:20 10° ESE visible
06 Aug 1.9 01:56:29 23° S 01:57:14 26° SSE 01:59:58 10° ESE visible
07 Aug 3.0 01:00:38 15° ESE 01:00:38 15° ESE 01:01:29 10° ESE visible
07 Aug 1.5 02:32:54 14° WSW 02:35:13 33° S 02:38:09 10° ESE visible
08 Aug 1.6 01:37:06 30° SSE 01:37:06 30° SSE 01:39:51 10° ESE visible
